User: anonymous   Login
Location: Unspecified
(0.0000°N, 0.0000°E)
Time: 09:22:47
(UTC+00:00)
Language:

USA 247 - Orbit

View from above orbital plane
View from above orbital plane
View from above satellite
View from above satellite

Ground track
Ground track

The orbit data is extracted from the following two-line orbital elements,

1 39462U 13072A   15207.14480985 0.00000000  00000-0  00000-0 0    04
2 39462 122.9997 277.7042 0002250 328.2799  31.7201 13.41441408    07
Epoch (UTC): 26 July 2015 03:28:31
Eccentricity: 0.0002250
inclination: 122.9997°
perigee height: 1102 km
apogee height: 1105 km
right ascension of ascending node: 277.7042°
argument of perigee: 328.2799°
revolutions per day: 13.41441408
mean anomaly at epoch: 31.7201°
orbit number at epoch: 0

The dashed part of the orbit path shows where the satellite is in the earth's shadow,  

DLR